Satellite: AAUSAT2
Catalog number: 32788
Epoch time:      08198.89867114
Element set:    0104
Inclination:      097.9872 deg
RA of node:       258.7168 deg
Eccentricity:    0.0016755
Arg of perigee:   047.6829 deg
Mean anomaly:     312.5794 deg
Mean motion:   14.81544013 rev/day
Decay rate:       2.25e-06 rev/day^2
Epoch rev:           01180
Checksum:              334

Satellite: DO-64
Catalog number: 32789
Epoch time:      08198.90544276
Element set:    0114
Inclination:      097.9901 deg
RA of node:       258.7407 deg
Eccentricity:    0.0016639
Arg of perigee:   044.5300 deg
Mean anomaly:     315.7241 deg
Mean motion:   14.81429221 rev/day
Decay rate:       1.25e-06 rev/day^2
Epoch rev:           01180
Checksum:              302

Satellite: SEEDS
Catalog number: 32791
Epoch time:      08198.43916506
Element set:    0098
Inclination:      097.9913 deg
RA of node:       258.2607 deg
Eccentricity:    0.0017212
Arg of perigee:   044.0520 deg
Mean anomaly:     316.2067 deg
Mean motion:   14.81292219 rev/day
Decay rate:       1.81e-06 rev/day^2
Epoch rev:           01170
Checksum:              287

Satellite: CANX-2
Catalog number: 32797
Epoch time:      08198.82301191
Element set:      47
Inclination:      097.9975 deg
RA of node:       258.7216 deg
Eccentricity:    0.0017745
Arg of perigee:   050.5655 deg
Mean anomaly:     309.7120 deg
Mean motion:   14.81840117 rev/day
Decay rate:      1.469e-05 rev/day^2
Epoch rev:            1047
Checksum:              317

Satellite: RS-30
Catalog number: 32953
Epoch time:      08198.78871280
Element set:    0059
Inclination:      082.5019 deg
RA of node:       105.1851 deg
Eccentricity:    0.0017977
Arg of perigee:   187.5554 deg
Mean anomaly:     172.5254 deg
Mean motion:   12.42996798 rev/day
Decay rate:        1.0e-07 rev/day^2
Epoch rev:           00672
Checksum:              328

/EX





More information about the Keps mailing list